Weather History for Rochester, NY

Change the Weather History Date:

Monday, October 8, 2012

  Actual Average Record
Temperature  
Mean Temperature 45 °F 53 °F  
Max Temperature 55 °F 63 °F 84 °F (1916)
Min Temperature 35 °F 44 °F 31 °F (2001)
Degree Days  
Heating Degree Days 20 12  
Month to date heating degree days 71 87  
Since 1 July heating degree days 223 268  
Cooling Degree Days 0 0  
Month to date cooling degree days 2 0  
Year to date cooling degree days 799 534  
Moisture  
Dew Point 39 °F    
Average Humidity 80    
Maximum Humidity 100    
Minimum Humidity 59    
Precipitation  
Precipitation 0.00 in 0.09 in 1.09 in (1900)
Month to date precipitation 1.05 0.74  
Year to date precipitation 25.99 26.72  
Snow  
Snow 0.00 in 0.00 in 0.60 in (1895)
Month to date snowfall 0.0 0.0  
Since 1 July snowfall 0.0 0.0  
Since 1 September snowfall 0.0 0.0  
Snow Depth 0.00 in    
Sea Level Pressure  
Sea Level Pressure 30.21 in    
Wind  
Wind Speed 5 mph (WSW)    
Max Wind Speed 16 mph    
Max Gust Speed 20 mph    
Visibility 10 miles    
Events      
T = Trace of Precipitation, MM = Missing Value Source: NWS Daily Summary

Daily Weather History Graph

Daily Weather History Graph

Search for Another Location

Airport:

Trip Planner

Search our weather history database for the weather conditions in past years. The results will help you decide how hot, cold, wet, or windy it might be!

Date:

Astronomy

Oct. 08, 2012 Rise Set
Actual Time 7:16 AM EDT 6:38 PM EDT
Civil Twilight 6:48 AM EDT 7:07 PM EDT
Nautical Twilight 6:15 AM EDT 7:40 PM EDT
Astronomical Twilight 5:42 AM EDT 8:13 PM EDT
Moon No Moon Rise 2:36 PM EDT (10/8)
Length of Visible Light 12h 19m
Length of Day
11h 22m
Waning Gibbous, 46% of the Moon is Illuminated
Oct 8
Waning Gibbous
Oct 15
New
Oct 21
First Quarter
Oct 29
Full
Nov 6
Last Quarter

Hourly Weather History & Observations

Time (EDT) Temp. Windchill Dew Point Humidity Pressure Visibility Wind Dir Wind Speed Gust Speed Precip Events Conditions
12:54 AM 37.0 °F 31.6 °F 35.1 °F 93% 30.14 in 10.0 mi SW 6.9 mph - N/A   Scattered Clouds
1:54 AM 36.0 °F 29.6 °F 35.1 °F 97% 30.16 in 10.0 mi SW 8.1 mph - N/A   Scattered Clouds
2:54 AM 36.0 °F 31.1 °F 34.0 °F 93% 30.16 in 10.0 mi WSW 5.8 mph - N/A   Mostly Cloudy
3:54 AM 36.0 °F 31.1 °F 35.1 °F 97% 30.16 in 10.0 mi SW 5.8 mph - N/A   Mostly Cloudy
4:54 AM 37.0 °F 33.3 °F 36.0 °F 96% 30.18 in 10.0 mi SW 4.6 mph - N/A   Mostly Cloudy
5:54 AM 37.9 °F 34.4 °F 37.0 °F 97% 30.19 in 10.0 mi SW 4.6 mph - N/A   Overcast
6:54 AM 39.9 °F 35.8 °F 37.9 °F 93% 30.22 in 10.0 mi SW 5.8 mph - N/A   Mostly Cloudy
7:54 AM 42.1 °F 39.2 °F 39.0 °F 89% 30.22 in 10.0 mi SSW 4.6 mph - N/A   Overcast
8:54 AM 43.0 °F 38.8 °F 39.9 °F 89% 30.24 in 10.0 mi SSW 6.9 mph - N/A   Mostly Cloudy
9:54 AM 46.0 °F 41.4 °F 41.0 °F 83% 30.24 in 10.0 mi South 9.2 mph - N/A   Mostly Cloudy
10:54 AM 48.9 °F - 41.0 °F 74% 30.24 in 10.0 mi SW 12.7 mph - N/A   Overcast
11:44 AM 48.2 °F - 42.8 °F 82% 30.22 in 10.0 mi West 4.6 mph - N/A   Overcast
11:54 AM 50.0 °F - 42.1 °F 74% 30.23 in 10.0 mi South 6.9 mph - N/A   Overcast
12:54 PM 52.0 °F - 41.0 °F 66% 30.23 in 10.0 mi WSW 5.8 mph - N/A   Overcast
1:19 PM 53.6 °F - 39.2 °F 58% 30.21 in 10.0 mi West 5.8 mph - N/A   Overcast
1:54 PM 53.1 °F - 39.9 °F 61% 30.22 in 10.0 mi WSW 8.1 mph - N/A   Overcast
2:54 PM 53.1 °F - 39.0 °F 59% 30.21 in 10.0 mi West 8.1 mph - N/A   Overcast
3:54 PM 53.1 °F - 39.9 °F 61% 30.22 in 10.0 mi West 9.2 mph - N/A   Overcast
4:54 PM 53.1 °F - 39.0 °F 59% 30.21 in 10.0 mi WNW 5.8 mph - N/A   Overcast
5:54 PM 53.1 °F - 39.0 °F 59% 30.22 in 10.0 mi WNW 3.5 mph - N/A   Mostly Cloudy
6:54 PM 48.9 °F - 39.9 °F 71% 30.22 in 10.0 mi Calm Calm - N/A   Mostly Cloudy
7:54 PM 45.0 °F - 41.0 °F 86% 30.22 in 10.0 mi Calm Calm - N/A   Partly Cloudy
8:54 PM 43.0 °F 41.3 °F 39.0 °F 86% 30.23 in 10.0 mi NNW 3.5 mph - N/A   Mostly Cloudy
9:54 PM 41.0 °F - 39.0 °F 93% 30.23 in 10.0 mi Calm Calm - N/A   Mostly Cloudy
10:54 PM 39.9 °F - 37.9 °F 93% 30.24 in 10.0 mi Calm Calm - N/A   Clear
11:54 PM 39.0 °F - 37.0 °F 93% 30.25 in 10.0 mi Calm Calm - N/A   Clear